Stündliche Wetter Otorowo

Heute, 15 April, Donnerstag

Zeit Temperatur Niederschläge Wind Luftdruck Luftfeuchtigkeit
00:00 +1°C° 0 mm 3 m/S 759 mmHg 73%
01:00 +1°C° 0 mm 3 m/S 759 mmHg 74%
02:00 +1°C° 0 mm 3 m/S 759 mmHg 75%
03:00 +1°C° 0 mm 3 m/S 759 mmHg 76%
04:00 +1°C° 0 mm 3 m/S 759 mmHg 76%
05:00 0°C° 0 mm 4 m/S 759 mmHg 77%
06:00 0°C° 0 mm 4 m/S 759 mmHg 78%
07:00 0°C° 0 mm 5 m/S 759 mmHg 78%
08:00 +1°C° 0.1 mm 5 m/S 759 mmHg 74%
09:00 +2°C° 0.1 mm 6 m/S 758 mmHg 70%
10:00 +2°C° 0.1 mm 6 m/S 758 mmHg 66%
11:00 +2°C° 0.5 mm 7 m/S 758 mmHg 73%
12:00 +2°C° 0.5 mm 7 m/S 758 mmHg 79%
13:00 +2°C° 0.5 mm 7 m/S 758 mmHg 86%
14:00 +2°C° 0.6 mm 6 m/S 758 mmHg 89%
15:00 +2°C° 0.6 mm 6 m/S 757 mmHg 91%
16:00 +2°C° 0.6 mm 6 m/S 757 mmHg 94%
17:00 +1°C° 0.9 mm 5 m/S 757 mmHg 95%
18:00 +1°C° 0.9 mm 5 m/S 757 mmHg 96%
19:00 +1°C° 0.9 mm 5 m/S 757 mmHg 97%
20:00 +1°C° 0.8 mm 5 m/S 757 mmHg 96%
21:00 +1°C° 0.8 mm 5 m/S 757 mmHg 95%
22:00 +1°C° 0.8 mm 4 m/S 757 mmHg 95%
23:00 +1°C° 0.2 mm 4 m/S 756 mmHg 93%

Morgen, 16 April, Freitag

Zeit Temperatur Niederschläge Wind Luftdruck Luftfeuchtigkeit
00:00 +1°C° 0.2 mm 4 m/S 756 mmHg 90%
01:00 +1°C° 0.2 mm 4 m/S 756 mmHg 88%
02:00 +1°C° 0.1 mm 4 m/S 756 mmHg 88%
03:00 +1°C° 0.1 mm 4 m/S 756 mmHg 88%
04:00 +1°C° 0.1 mm 4 m/S 756 mmHg 89%
05:00 +1°C° 0 mm 4 m/S 756 mmHg 87%
06:00 +1°C° 0 mm 4 m/S 756 mmHg 86%
07:00 +1°C° 0 mm 4 m/S 757 mmHg 85%
08:00 +3°C° 0 mm 4 m/S 757 mmHg 80%
09:00 +5°C° 0 mm 4 m/S 757 mmHg 74%
10:00 +6°C° 0 mm 4 m/S 757 mmHg 69%
11:00 +6°C° 0 mm 4 m/S 756 mmHg 69%
12:00 +6°C° 0 mm 4 m/S 756 mmHg 68%
13:00 +6°C° 0 mm 4 m/S 756 mmHg 68%
14:00 +6°C° 0 mm 4 m/S 756 mmHg 73%
15:00 +5°C° 0 mm 4 m/S 756 mmHg 77%
16:00 +5°C° 0 mm 4 m/S 756 mmHg 82%
17:00 +4°C° 0.2 mm 4 m/S 756 mmHg 85%
18:00 +4°C° 0.2 mm 3 m/S 756 mmHg 89%
19:00 +3°C° 0.2 mm 3 m/S 757 mmHg 92%
20:00 +3°C° 0.2 mm 3 m/S 756 mmHg 93%
21:00 +3°C° 0.2 mm 3 m/S 756 mmHg 94%
22:00 +4°C° 0.2 mm 2 m/S 756 mmHg 95%
23:00 +4°C° 0 mm 2 m/S 756 mmHg 95%

übermorgen, 17 April, Samstag

Zeit Temperatur Niederschläge Wind Luftdruck Luftfeuchtigkeit
00:00 +4°C° 0 mm 2 m/S 756 mmHg 95%
01:00 +4°C° 0 mm 2 m/S 756 mmHg 95%
02:00 +4°C° 0 mm 2 m/S 756 mmHg 95%
03:00 +4°C° 0 mm 2 m/S 756 mmHg 95%
04:00 +5°C° 0 mm 1 m/S 756 mmHg 96%
05:00 +4°C° 0 mm 2 m/S 756 mmHg 94%
06:00 +5°C° 0 mm 2 m/S 756 mmHg 93%
07:00 +5°C° 0 mm 2 m/S 756 mmHg 92%
08:00 +5°C° 0 mm 2 m/S 756 mmHg 92%
09:00 +6°C° 0 mm 2 m/S 756 mmHg 92%
10:00 +6°C° 0 mm 2 m/S 756 mmHg 91%
11:00 +6°C° 0.1 mm 2 m/S 756 mmHg 92%
12:00 +7°C° 0.1 mm 2 m/S 756 mmHg 92%
13:00 +7°C° 0.1 mm 3 m/S 756 mmHg 92%
14:00 +7°C° 0.1 mm 2 m/S 756 mmHg 92%
15:00 +7°C° 0.1 mm 2 m/S 756 mmHg 93%
16:00 +8°C° 0.1 mm 2 m/S 756 mmHg 93%
17:00 +7°C° 0 mm 2 m/S 756 mmHg 94%
18:00 +7°C° 0 mm 2 m/S 756 mmHg 95%
19:00 +7°C° 0 mm 2 m/S 756 mmHg 96%
20:00 +7°C° 0.3 mm 2 m/S 756 mmHg 96%
21:00 +7°C° 0.3 mm 2 m/S 756 mmHg 96%
22:00 +7°C° 0.3 mm 2 m/S 756 mmHg 97%
23:00 +6°C° 0.1 mm 2 m/S 756 mmHg 96%

18 April, Sonntag

Zeit Temperatur Niederschläge Wind Luftdruck Luftfeuchtigkeit
00:00 +6°C° 0.1 mm 2 m/S 756 mmHg 96%
01:00 +5°C° 0.1 mm 2 m/S 756 mmHg 95%
02:00 +5°C° 0 mm 2 m/S 755 mmHg 95%
03:00 +4°C° 0 mm 2 m/S 755 mmHg 95%
04:00 +4°C° 0 mm 2 m/S 755 mmHg 96%
05:00 +5°C° 0 mm 2 m/S 755 mmHg 94%
06:00 +5°C° 0 mm 2 m/S 755 mmHg 93%
07:00 +6°C° 0 mm 2 m/S 755 mmHg 91%
08:00 +7°C° 0.1 mm 2 m/S 755 mmHg 87%
09:00 +8°C° 0.1 mm 3 m/S 755 mmHg 82%
10:00 +9°C° 0.1 mm 3 m/S 755 mmHg 77%
11:00 +10°C° 0.2 mm 3 m/S 755 mmHg 74%
12:00 +10°C° 0.2 mm 3 m/S 755 mmHg 70%
13:00 +11°C° 0.2 mm 3 m/S 755 mmHg 66%
14:00 +11°C° 0.1 mm 3 m/S 755 mmHg 65%
15:00 +11°C° 0.1 mm 3 m/S 755 mmHg 63%
16:00 +12°C° 0.1 mm 2 m/S 754 mmHg 61%
17:00 +10°C° 0 mm 2 m/S 755 mmHg 66%
18:00 +9°C° 0 mm 2 m/S 755 mmHg 71%
19:00 +8°C° 0 mm 2 m/S 755 mmHg 76%
20:00 +8°C° 0 mm 2 m/S 755 mmHg 79%
21:00 +7°C° 0 mm 2 m/S 755 mmHg 82%
22:00 +6°C° 0 mm 2 m/S 755 mmHg 85%
23:00 +6°C° 0 mm 2 m/S 755 mmHg 86%

19 April, Montag

Zeit Temperatur Niederschläge Wind Luftdruck Luftfeuchtigkeit
00:00 +6°C° 0 mm 2 m/S 755 mmHg 86%
01:00 +6°C° 0 mm 2 m/S 755 mmHg 87%
02:00 +6°C° 0 mm 2 m/S 755 mmHg 88%
03:00 +6°C° 0 mm 2 m/S 755 mmHg 89%
04:00 +5°C° 0 mm 2 m/S 754 mmHg 91%
05:00 +6°C° 0 mm 2 m/S 754 mmHg 88%
06:00 +7°C° 0 mm 2 m/S 754 mmHg 85%
07:00 +8°C° 0 mm 2 m/S 754 mmHg 83%
08:00 +9°C° 0.1 mm 3 m/S 754 mmHg 77%
09:00 +10°C° 0.1 mm 4 m/S 754 mmHg 71%
10:00 +12°C° 0.1 mm 4 m/S 754 mmHg 64%
11:00 +12°C° 0.1 mm 4 m/S 753 mmHg 64%
12:00 +12°C° 0.1 mm 5 m/S 753 mmHg 63%
13:00 +12°C° 0.1 mm 5 m/S 753 mmHg 63%
14:00 +12°C° 0.1 mm 4 m/S 753 mmHg 67%
15:00 +11°C° 0.1 mm 3 m/S 752 mmHg 72%
16:00 +10°C° 0.1 mm 3 m/S 752 mmHg 76%
17:00 +10°C° 0.1 mm 3 m/S 752 mmHg 79%
18:00 +9°C° 0.1 mm 3 m/S 752 mmHg 82%
19:00 +9°C° 0.1 mm 3 m/S 751 mmHg 85%
20:00 +9°C° 0.2 mm 3 m/S 751 mmHg 87%
21:00 +9°C° 0.2 mm 3 m/S 751 mmHg 89%
22:00 +8°C° 0.2 mm 3 m/S 751 mmHg 91%
23:00 +8°C° 0.1 mm 3 m/S 751 mmHg 92%

20 April, Dienstag

Zeit Temperatur Niederschläge Wind Luftdruck Luftfeuchtigkeit
00:00 +8°C° 0.1 mm 2 m/S 750 mmHg 92%
01:00 +8°C° 0.1 mm 2 m/S 750 mmHg 93%
02:00 +8°C° 0.1 mm 3 m/S 750 mmHg 91%
03:00 +8°C° 0.1 mm 3 m/S 749 mmHg 90%
04:00 +8°C° 0.1 mm 3 m/S 749 mmHg 89%
05:00 +8°C° 0.1 mm 3 m/S 749 mmHg 87%
06:00 +7°C° 0.1 mm 4 m/S 749 mmHg 86%
07:00 +7°C° 0.1 mm 4 m/S 749 mmHg 84%
08:00 +8°C° 0 mm 4 m/S 748 mmHg 83%
09:00 +8°C° 0 mm 4 m/S 748 mmHg 81%
10:00 +10°C° 0 mm 3 m/S 748 mmHg 79%
11:00 +11°C° 0.3 mm 4 m/S 748 mmHg 75%
12:00 +12°C° 0.3 mm 4 m/S 747 mmHg 71%
13:00 +13°C° 0.3 mm 5 m/S 747 mmHg 67%
14:00 +13°C° 0.4 mm 5 m/S 747 mmHg 69%
15:00 +12°C° 0.4 mm 4 m/S 747 mmHg 71%
16:00 +12°C° 0.4 mm 4 m/S 746 mmHg 72%
17:00 +11°C° 0.2 mm 4 m/S 746 mmHg 77%
18:00 +10°C° 0.2 mm 3 m/S 746 mmHg 82%
19:00 +9°C° 0.2 mm 3 m/S 746 mmHg 86%
20:00 +9°C° 0 mm 3 m/S 746 mmHg 89%
21:00 +8°C° 0 mm 3 m/S 746 mmHg 92%
22:00 +7°C° 0 mm 3 m/S 746 mmHg 94%
23:00 +5°C° 0 mm 3 m/S 746 mmHg 95%
Mehr zeigen

Wir brauchen deine Erlaubnis

Meteoprog und unser Service Anbieter werden persönliche Daten aufbewahren, so wie Cookies, Geräte Bezeichnung oder ähnliche Technologien von deinem Gerät und Prozess, so wie Persönliche Daten Inhalte und Werbungen, genauso wie social Media und den Verkehr zu analysieren.

  • Aufbewahrung und/oder Zugang zu deiner Geräte Informationen.

    Cookies, Geräte Bezeichnung oder andere Informationen, können aufbewahrt oder Zugang zu deinem Gerät erhalten, für den Grund, der oben angegeben wird.

  • Personalisierte Werbung und Inhalte, Messungen, Einblick in das Publikum und Produkt Entwicklung.

    Werbungen und Inhalte können personalisiert werden, basierend auf ein Profil. Mehr Daten können besser personalisierte Werbungen und Inhalte hinzufügen. Werbung und Inhalte können gezeigt und gemessen werden. Einblicke über das Publikum, welche die Werbung gesehen haben und den Inhalt, können abgeleitet werden. So wie Daten können genutzt werden, um es zu verbessern oder die Benutzer Erfahrung zu verbessern das System und die Software.

Wenn du “Ich stimme zu” klickst, erlaubst du uns, die Cookies zu benutzen die Geräte Bezeichnung, den Web oder ähnliche Technologien zu benutzen. Deine Settings, können in deinem Gerät bei deinem Browser geändert werden.

Für den bestimmten Zweck, berechtigten Interessen beruhen darauf, mehr als auf den Inhalt. Du kannst mehr darüber in unseren Privaten und Cookie Politik lesen.